This is the latest recevied weather packets stored in our database for station/object KC7UNY-13. If no packets are shown the sender has not sent any weather packets the latest 10 day(s).
| Time | Temp. | Humidity | Pressure | Rain* | Wind** | Luminosity | Snow |
|---|---|---|---|---|---|---|---|
| 1777364613 | 16.67° C | 37% | 1014.5 hPa | 0 mm | - | 0 W/m² | - |
| 1777364310 | 16.67° C | 36% | 1014.4 hPa | 0 mm | - | 0 W/m² | - |
| 1777364006 | 17.22° C | 36% | 1014.7 hPa | 0 mm | - | 0 W/m² | - |
| 1777363702 | 17.22° C | 36% | 1014.5 hPa | 0 mm | - | 0 W/m² | - |
| 1777363399 | 17.22° C | 36% | 1014.6 hPa | 0 mm | - | 0 W/m² | - |
| 1777363097 | 16.67° C | 36% | 1014.6 hPa | 0 mm | - | 0 W/m² | - |
| 1777362792 | 17.22° C | 36% | 1014.5 hPa | 0 mm | - | 0 W/m² | - |
| 1777362491 | 17.22° C | 36% | 1014.7 hPa | 0 mm | - | 0 W/m² | - |
| 1777362188 | 17.78° C | 35% | 1014.5 hPa | 0 mm | - | 0 W/m² | - |
| 1777361885 | 17.78° C | 35% | 1014.5 hPa | 0 mm | - | 0 W/m² | - |
| 1777361582 | 18.33° C | 34% | 1014.7 hPa | 0 mm | - | 0 W/m² | - |
| 1777361280 | 17.78° C | 34% | 1014.8 hPa | 0 mm | - | 0 W/m² | - |
| 1777360976 | 18.33° C | 33% | 1014.6 hPa | 0 mm | - | 0 W/m² | - |
| 1777360675 | 18.89° C | 33% | 1014.6 hPa | 0 mm | - | 0 W/m² | - |
| 1777360371 | 18.89° C | 34% | 1014.7 hPa | 0 mm | - | 0 W/m² | - |
| 1777360068 | 18.89° C | 33% | 1014.6 hPa | 0 mm | - | 0 W/m² | - |
| 1777359765 | 18.89° C | 32% | 1014.5 hPa | 0 mm | - | 0 W/m² | - |
| 1777359462 | 19.44° C | 32% | 1014.4 hPa | 0 mm | - | 0 W/m² | - |
| 1777359158 | 18.89° C | 32% | 1014.3 hPa | 0 mm | - | 0 W/m² | - |
| 1777358856 | 19.44° C | 32% | 1014.3 hPa | 0 mm | - | 0 W/m² | - |
| 1777358553 | 19.44° C | 32% | 1014.4 hPa | 0 mm | - | 0 W/m² | - |
| 1777358251 | 20° C | 31% | 1014.3 hPa | 0 mm | - | 0 W/m² | - |
| 1777357949 | 20° C | 31% | 1014.4 hPa | 0 mm | - | 0 W/m² | - |
| 1777357646 | 20° C | 31% | 1014.1 hPa | 0 mm | - | 0 W/m² | - |
| 1777357342 | 20.56° C | 30% | 1014.2 hPa | 0 mm | - | 0 W/m² | - |
* Rain latest hour (hover to see other rain measurements)
** Current wind speed in m/s (hover to see current wind gust speed)